NWS Melbourne » East Central Florida Hourly Weather Roundup

MIARWRMLB 000
TTAA00 KMLB 242311
HOURLY WEATHER ROUNDUP AROUND FLORIDA
NATIONAL WEATHER SERVICE OFFICE MELBOURNE FL
700 PM EDT THU APR 24 2014
  
CITY           SKY/WX    TMP DP  RH WIND       PRES   REMARKS
MELBOURNE      SUNNY     79  65  62 SE13G22   29.95S                  
FORT PIERCE    SUNNY     79  65  62 SE15      29.95S                  
ORLANDO INTL   PTSUNNY   81  65  58 SE12      29.93S                  
DAYTONA BEACH  MOSUNNY   78  64  61 SE9       29.95S                  
VERO BEACH     SUNNY     79  67  66 SE14      29.96S                  
$$
...ELSEWHERE ACROSS CENTRAL FLORIDA...
  
CITY           SKY/WX    TMP DP  RH WIND       PRES   REMARKS
PATRICK AFB    SUNNY     78  70  78 SE13      29.95S                  
JFK SPACE CTR  SUNNY     79  67  67 SE8       29.95S                  
CAPE CANAVERAL SUNNY     78  66  66 SE10      29.95S                  
TITUSVILLE     MOSUNNY   79  66  65 SE12      29.95F                  
ORLANDO EXEC   CLOUDY    81  66  60 SE13      29.93S                  
LEESBURG       SUNNY     85  63  47 W6        29.94S                  
SANFORD        LGT RAIN  79  67  66 SE15      29.93S                  
WINTER HAVEN     N/A    N/A N/A N/A MISG      29.94S                  
KISSIMMEE      PTSUNNY   82  72  69 E15       29.93S                  
OKEECHOBEE     SUNNY     82  64  54 E9        29.94S                  
TAMPA          SUNNY     77  63  61 W12       29.96S                  
$$
...NORTHERN FLORIDA...
  
CITY           SKY/WX    TMP DP  RH WIND       PRES   REMARKS
NEW SMYRNA BCH SUNNY     77  68  73 SE16      29.96S                  
ORMOND BEACH   SUNNY     77  64  65 SE12G18   29.95S                  
PALM COAST     SUNNY     79  64  61 SE14G21   29.94S HAZE             
ST AUGUSTINE   SUNNY     76  67  73 SE10      29.95S                  
THE VILLAGES     N/A     82  66  57 W12       29.93S                  
OCALA          MOSUNNY   81  61  50 W10       29.95R                  
GAINESVILLE    PTSUNNY   83  61  47 W7        29.93S                  
JACKSONVILLE   MOSUNNY   78  65  63 E8        29.93S                  
TALLAHASSEE    MOSUNNY   82  57  42 S7        29.93S                  
$$
...ALONG THE SOUTHEAST COAST TO THE KEYS...
  
CITY           SKY/WX    TMP DP  RH WIND       PRES   REMARKS
STUART         MOSUNNY   79  66  65 SE14      29.96F                  
WEST PALM BCH  PTCLDY    80  67  64 SE14      29.94F                  
MIAMI          PTCLDY    80  67  64 S10       29.95S                  
KEY WEST       SUNNY     79  68  69 SE6       29.96S                  
$$
...MARINE REPORTS...
  
STATION/POSITION TIME  TEMP    WIND        PRES    WAVE   SWELL
                       AIR SEA DIR/SP/G            HT/PER HT/PER/DIR
                 (UTC) (F)     (DEG/KT/KT) (MB)    (FT/S) (FT/S/D)
ST AUGUSTINE FP  2300   71     170/ 13/ 14 1014.4F
20NM E CAPE CANA 2300   78 79  120/ 14/ 16 1014.5S
120 E NEW SMYRNA 2300   75 76  150/  6/  8 1015.8F   2/ 8   2/ 70/ 8
TRIDENT PIER     2300   77 77  120/  5/  8 1013.8S
SEBASTIAN INLET  2300   76     130/ 11     1015.0S
4NM E PORT CANAV 2300      74                N/A     1/ 8
6NM NE FPR INLET 2300      76                N/A     2/14   2/ 60/14
SETTLEMENT PT GB 2300   78      60/  4/  5 1015.4F
$$
  
 


USA.gov is the U.S. government's official web portal to all federal, state and local government web resources and services.